RH
11 14 15 14 14 12 12 12 11 9 7 7 10 9 7 5 5 5 3 3 3 4 6 5 5 6 5 5 5 9 10 9 10 10 12 12 18 29 33 35 39 38 40 60 84 91 90 89 89 87 73 58 62 83 93 72 62 69 64 61 66 71 67 56 60 62 56 62 70 78 84 84 82 79 82 81 76 78 78 81 77 62 66 78 83 82
12 16 16 12 12 11 12 12 12 11 9 9 12 12 8 6 5 4 3 4 4 6 7 5 5 5 5 6 4 8 11 11 11 10 11 12 14 23 31 35 35 36 49 74 89 84 78 84 94 87 63 53 58 73 82 69 66 72 61 56 61 62 58 52 58 61 57 61 69 77 80 81 78 74 79 78 69 65 63 71 77 73 72 69 68 69
15 17 15 11 12 12 12 12 12 12 12 13 14 13 10 7 5 5 5 4 4 7 7 6 7 6 7 6 5 8 10 11 11 11 12 11 13 22 29 29 26 39 69 83 72 67 80 94 97 84 63 56 61 71 78 69 63 63 56 54 60 62 59 59 61 58 57 63 71 75 73 74 73 74 80 75 61 50 49 57 60 68 77 68 62 70
18 16 13 11 12 13 13 14 16 15 15 16 16 14 12 9 5 6 8 6 7 10 9 9 9 9 9 6 6 7 7 11 12 12 12 10 18 26 24 25 33 54 78 77 61 60 80 99 97 82 65 57 62 69 72 69 61 57 55 54 59 64 61 59 57 53 55 63 74 76 69 71 73 73 73 64 58 58 64 68 62 66 75 72 68 73
17 13 10 10 11 12 14 17 19 18 17 16 16 15 12 9 6 7 10 9 9 12 11 11 12 12 9 8 9 7 8 14 13 15 13 12 23 24 24 46 62 67 69 61 55 62 83 100 95 79 61 53 64 72 71 71 63 56 55 51 56 59 51 49 49 49 54 60 66 61 60 74 74 66 66 61 62 70 67 60 63 73 73 68 64 65
14 12 10 10 10 12 16 18 18 18 18 15 14 14 11 10 9 7 9 10 12 15 13 12 18 17 10 9 10 8 13 16 15 18 13 13 24 21 32 68 77 66 58 47 47 70 95 99 88 78 62 54 66 73 71 67 57 52 51 49 54 54 43 39 42 50 57 54 47 41 53 72 66 60 66 63 65 72 67 61 70 78 73 70 67 68
11 11 10 11 12 14 16 16 15 15 16 14 11 11 10 10 10 9 10 12 14 18 17 15 19 19 14 12 9 9 17 19 17 19 16 17 20 20 42 73 76 68 62 45 47 76 97 94 88 82 67 59 66 70 63 55 49 47 47 46 50 51 42 39 43 52 56 49 40 37 50 62 60 66 71 62 66 73 72 73 77 75 73 75 69 65
11 11 12 13 13 15 16 14 12 11 13 13 10 9 8 8 10 11 12 12 13 16 18 15 15 17 15 11 8 10 17 22 20 21 22 18 21 38 63 75 68 65 62 49 52 73 87 94 96 86 71 65 66 64 55 47 45 45 45 44 48 51 45 45 52 55 56 50 36 35 49 61 70 78 71 65 71 70 66 66 68 71 73 75 69 63
11 13 15 14 14 15 14 12 10 9 12 12 8 8 7 7 8 10 12 13 14 17 19 16 15 18 16 10 10 11 16 24 22 24 24 19 38 69 80 75 62 55 58 54 56 71 83 93 99 89 75 69 66 60 53 48 45 45 45 43 49 54 48 53 59 53 51 44 32 42 60 71 81 78 66 64 61 56 59 65 73 77 75 77 72 63
10 10 11 12 13 12 11 9 8 9 11 10 7 9 9 8 7 10 13 13 16 22 23 18 17 21 20 12 13 14 17 23 20 22 23 20 48 77 74 67 58 51 60 63 60 74 89 91 92 89 77 70 68 59 53 53 48 46 49 47 49 52 45 50 55 45 38 30 31 55 72 78 81 71 63 60 47 49 65 71 71 67 64 68 65 59
9 9 8 9 11 10 9 8 7 8 9 9 8 10 12 11 9 10 12 12 19 25 21 17 17 23 25 16 14 17 16 19 19 22 22 20 47 73 66 57 53 54 69 74 66 76 92 90 87 88 80 72 68 61 60 60 51 50 56 53 47 46 43 44 46 43 39 34 37 54 72 80 75 66 65 55 37 42 57 61 62 61 62 62 53 49
8 10 10 9 8 8 8 9 10 8 7 9 11 13 16 16 13 12 13 15 23 25 18 15 14 21 27 20 19 23 17 18 25 31 28 26 49 70 60 50 54 61 74 81 77 79 91 92 88 89 85 76 70 68 68 62 54 53 56 56 50 48 46 42 44 44 40 43 45 50 69 76 67 66 64 46 30 34 47 57 65 66 62 53 42 35
9 9 9 10 9 7 8 11 12 10 8 9 12 16 20 21 21 21 20 20 23 22 16 14 15 20 26 23 26 29 22 20 24 30 31 31 47 64 59 51 55 65 76 83 81 81 89 92 90 92 90 81 74 71 68 61 56 54 53 53 51 51 50 44 45 43 39 49 53 53 68 72 69 69 59 42 35 37 52 65 64 56 47 41 35 26
12 10 8 11 11 8 9 13 15 14 12 11 11 15 21 24 27 28 23 21 22 19 14 13 17 25 29 26 27 28 26 27 26 29 32 30 36 52 58 57 59 69 79 81 76 80 90 89 88 93 92 86 80 75 69 60 54 52 52 53 51 54 55 48 45 42 42 56 61 59 64 68 71 69 58 48 41 45 61 64 52 45 40 37 32 22
15 15 11 11 11 9 10 11 12 12 10 10 9 12 18 22 26 28 24 23 23 18 16 16 18 29 41 37 28 28 30 31 33 37 39 36 37 47 55 61 68 74 80 81 76 78 89 91 89 91 90 86 87 83 72 60 54 54 58 61 60 56 53 51 50 47 48 59 67 61 52 56 65 65 61 53 46 54 59 50 47 48 43 38 28 18
15 15 10 9 9 8 9 9 8 9 11 11 7 10 17 19 22 27 28 27 26 21 20 24 24 28 40 39 29 29 32 32 36 43 45 47 52 60 68 74 77 77 79 80 75 75 83 89 90 91 91 87 86 87 80 68 65 66 68 72 73 64 57 60 57 51 53 65 77 61 36 46 65 64 61 56 51 55 46 38 50 52 43 34 20 12
15 14 10 8 9 7 8 9 7 8 17 19 12 10 11 12 18 28 31 27 26 27 23 27 34 33 35 39 32 28 33 38 44 49 52 55 61 72 80 84 84 82 80 77 77 80 82 83 87 94 97 91 85 87 86 81 80 79 78 83 86 78 72 70 59 53 60 73 83 62 35 50 72 65 60 56 49 48 43 47 56 50 43 29 11 10
16 16 14 11 10 9 7 9 7 5 13 20 17 12 9 13 18 21 29 32 32 32 22 21 33 35 32 36 34 30 37 51 58 60 62 61 64 74 80 80 83 87 87 81 77 80 82 85 92 95 93 92 89 88 89 90 90 87 84 87 91 87 81 74 59 52 65 79 80 61 46 59 73 68 64 56 44 39 40 52 56 48 41 25 9 11
15 19 20 14 11 9 6 8 10 7 7 11 14 12 15 28 29 19 25 34 37 37 27 19 22 25 27 31 33 39 48 59 67 69 68 65 65 74 80 79 76 77 83 82 75 75 86 95 97 93 91 93 94 93 93 95 96 94 91 90 92 92 89 84 67 54 66 82 73 54 53 64 69 71 69 51 36 30 30 37 45 47 37 18 10 13
17 23 23 15 10 10 10 10 13 12 8 8 11 10 15 25 25 21 25 27 28 33 30 20 16 26 40 37 31 41 52 58 66 70 65 62 65 71 73 70 63 62 71 79 78 78 87 94 92 91 93 96 97 97 96 96 97 97 95 92 94 97 95 93 83 68 70 77 66 51 51 57 60 69 69 48 28 23 21 21 28 37 32 16 11 14
18 28 27 18 11 12 15 14 13 13 11 10 13 13 15 18 16 21 26 21 19 24 27 24 25 38 51 40 25 34 48 50 55 62 59 60 67 69 64 62 62 63 68 72 72 71 76 82 85 88 92 94 95 95 95 98 99 97 94 91 91 92 89 85 84 80 71 65 61 52 47 48 53 62 60 41 24 18 16 15 18 23 21 15 14 15
20 28 29 23 19 18 17 13 10 11 11 11 12 13 15 18 22 26 26 21 19 21 23 27 37 47 47 38 31 35 43 43 46 51 51 54 63 64 61 63 65 63 61 62 65 66 68 72 77 85 92 93 92 91 92 95 93 87 83 81 78 77 77 76 78 82 73 60 55 48 45 50 59 68 63 38 19 16 15 14 15 17 16 15 16 16
26 26 27 25 23 21 18 14 12 12 10 9 11 12 14 15 18 24 30 34 31 25 21 23 35 46 43 39 41 40 39 40 43 46 47 50 55 54 55 59 58 54 54 58 64 64 63 64 66 76 89 90 89 90 89 89 87 81 74 72 69 67 70 73 76 81 79 71 61 52 56 68 74 80 79 52 24 16 17 15 15 16 15 16 17 19
26 24 27 29 27 24 21 17 15 15 13 13 14 14 16 15 15 21 32 39 35 27 25 28 35 46 46 41 41 43 45 45 44 46 51 55 54 52 55 58 56 57 57 59 63 64 63 60 57 65 78 84 87 90 90 88 85 81 76 73 71 69 71 72 73 76 76 73 65 55 59 71 73 73 79 73 52 30 20 17 17 18 16 19 20 20
24 25 28 32 35 37 37 32 23 23 26 25 23 19 16 15 17 25 33 34 31 26 24 31 43 49 45 40 44 51 57 60 60 59 61 63 59 54 56 60 60 61 59 57 59 60 60 59 56 59 66 75 83 88 89 86 81 80 82 81 80 79 78 75 74 75 73 69 63 55 53 56 59 66 78 88 80 56 35 22 16 18 18 22 30 32
25 31 29 33 41 43 51 53 42 34 33 30 29 28 25 21 21 30 37 36 35 31 27 36 51 52 43 46 60 66 65 70 74 71 68 67 63 56 55 59 61 62 63 64 63 60 56 54 54 53 54 62 74 84 88 87 85 85 86 86 85 83 81 81 83 83 82 73 60 56 64 66 65 70 74 75 74 69 59 43 31 31 30 33 46 52
28 34 31 33 36 33 41 50 43 34 34 35 35 34 34 36 32 28 32 37 40 43 47 50 55 56 53 59 72 76 74 77 79 76 74 74 72 69 67 69 68 70 77 78 76 73 65 57 54 52 51 57 67 78 82 81 81 84 84 83 83 84 84 86 88 85 84 82 74 72 81 82 73 66 62 62 66 73 76 69 62 60 56 54 61 61
32 33 33 35 34 26 26 33 33 31 33 35 39 40 39 44 47 38 32 34 35 42 57 62 58 65 71 68 70 74 76 79 80 82 85 86 87 86 85 85 80 77 81 79 76 79 77 70 66 62 61 65 71 76 75 69 68 75 81 81 83 88 88 85 84 80 79 86 89 86 83 77 69 63 62 65 70 76 80 77 75 74 68 65 70 69
34 34 33 34 33 28 24 26 30 33 34 33 37 44 42 42 53 59 54 48 39 39 56 67 66 74 78 68 67 71 74 78 83 88 91 90 88 84 81 82 79 75 76 74 72 76 77 75 74 73 70 71 75 77 76 74 76 80 84 86 89 94 93 90 90 85 80 84 89 89 87 84 81 75 68 64 67 77 84 80 77 74 65 63 68 68
29 40 45 39 32 29 26 27 29 30 34 36 37 42 44 42 48 59 65 66 61 55 58 65 71 75 70 62 67 72 73 77 84 88 88 87 88 85 79 80 78 74 73 71 69 70 70 69 71 73 70 67 69 69 70 76 81 82 83 84 86 90 89 89 92 91 89 91 94 96 95 95 94 88 79 73 72 75 76 75 78 77 68 65 67 66
36 46 54 47 38 34 31 29 31 32 33 38 41 41 43 45 50 55 60 66 72 70 64 63 71 75 64 56 63 67 69 74 77 78 76 77 81 81 80 83 83 75 71 69 67 66 64 63 65 68 69 68 67 66 65 69 74 77 79 78 80 85 86 86 88 92 96 97 98 100 98 97 99 95 89 89 89 83 75 73 79 81 75 72 71 68
56 48 48 49 44 39 35 32 32 36 39 42 45 44 45 49 52 55 56 56 62 69 68 64 71 75 65 56 59 62 66 72 74 72 70 70 73 75 75 79 80 76 73 72 69 66 64 63 63 64 66 68 68 68 68 68 70 74 76 75 75 78 83 87 89 94 98 96 95 98 97 95 96 94 91 93 94 93 89 84 83 81 77 77 75 71
64 49 42 47 46 37 36 39 38 43 52 56 52 47 48 49 48 54 59 54 50 54 59 63 71 71 60 54 58 62 66 72 76 77 75 73 74 74 73 73 75 77 78 76 75 73 70 67 64 62 62 64 63 63 64 64 63 63 63 66 68 68 73 81 85 89 92 90 87 86 85 87 90 88 88 89 87 86 87 85 84 82 78 78 76 71
64 53 45 52 52 44 43 47 47 52 60 64 58 48 46 47 49 59 65 57 48 47 50 56 65 62 52 52 59 63 68 77 84 84 82 80 78 75 72 71 73 76 78 77 77 77 75 71 67 64 64 64 61 57 57 55 52 51 50 53 57 58 60 66 70 74 78 79 77 74 74 80 84 81 80 81 76 75 76 77 80 81 79 78 77 73
54 47 45 54 60 64 65 61 62 69 67 61 54 46 43 47 51 60 63 54 48 50 50 51 53 51 47 50 54 58 65 74 79 78 75 76 78 79 76 73 70 70 72 74 75 75 74 71 68 66 66 67 65 62 59 55 51 49 46 45 46 48 50 53 56 59 62 63 65 67 68 74 78 77 78 77 73 71 73 74 75 76 74 73 72 72
43 41 42 45 54 67 71 66 69 72 63 55 51 45 46 50 51 58 68 63 53 52 54 53 49 45 44 46 47 50 55 58 62 65 65 65 68 72 74 74 72 71 71 72 72 70 69 68 67 66 66 67 66 64 61 61 59 55 52 48 44 42 43 45 46 48 49 49 51 55 58 61 66 69 72 74 73 73 72 70 71 73 72 73 73 72
36 42 43 41 47 56 59 64 72 70 63 61 57 50 51 54 50 53 67 71 58 51 55 56 51 47 45 44 45 45 45 46 50 55 57 58 60 62 64 66 68 69 70 71 72 69 65 64 62 61 61 62 63 62 60 61 62 59 56 52 48 46 46 46 46 46 46 46 46 47 48 50 54 57 59 62 67 70 67 63 63 64 63 66 68 68
30 42 49 49 51 51 55 66 71 72 76 73 62 50 45 48 48 47 58 70 62 53 57 59 59 56 50 47 47 44 44 48 49 48 48 50 53 56 59 60 60 62 63 63 63 63 63 65 63 61 59 58 59 60 60 61 61 60 58 56 54 53 53 53 53 52 52 52 50 49 49 49 50 51 51 52 55 58 60 60 61 59 57 60 61 63
26 39 50 53 53 53 60 67 65 71 81 76 65 56 43 41 46 46 57 68 58 49 56 59 60 60 55 53 52 47 50 57 53 45 44 45 46 48 51 53 53 55 57 57 57 57 57 59 61 62 61 59 59 60 60 60 60 60 62 64 63 62 61 59 59 58 57 56 56 55 53 52 52 52 51 51 51 53 54 55 56 57 57 58 59 61
29 35 42 47 51 56 63 67 68 76 79 67 59 57 48 42 44 52 69 71 49 39 47 49 51 53 51 51 50 45 49 56 51 45 45 46 47 47 47 48 48 47 50 52 54 53 52 54 56 56 57 58 60 62 62 62 61 60 63 67 68 68 65 61 60 60 59 58 57 55 53 52 53 54 53 51 52 53 53 53 53 54 54 54 54 54
33 34 37 40 45 52 61 69 75 79 73 61 53 50 47 49 52 60 70 62 40 34 39 40 44 48 45 45 46 44 46 47 46 47 47 47 48 48 48 49 48 48 49 48 45 43 45 49 51 50 50 51 53 55 55 52 52 56 60 62 65 67 67 66 65 62 60 59 58 56 54 53 54 56 57 57 56 55 55 54 53 54 55 56 55 52
39 38 38 41 42 43 49 64 79 81 69 57 50 43 43 57 67 64 56 46 38 38 38 40 46 47 45 45 45 44 45 45 46 49 49 50 50 50 51 51 50 50 50 49 48 43 41 44 47 47 49 48 49 51 44 33 33 41 45 46 51 56 56 57 57 51 50 56 59 58 58 57 57 58 60 62 63 61 59 58 57 56 58 60 59 56
45 45 47 53 51 42 45 63 84 88 69 51 49 47 45 55 61 52 42 41 42 41 40 43 45 45 46 48 48 48 48 48 50 52 54 54 52 50 51 51 51 50 48 49 49 40 35 42 45 43 46 47 48 50 44 32 30 33 29 27 31 33 32 36 37 33 35 43 46 46 49 53 55 57 57 60 62 61 61 62 62 61 61 63 62 57
47 47 52 60 55 49 61 76 81 74 57 44 48 52 50 50 47 41 40 44 45 44 45 47 46 46 48 51 52 53 53 53 55 55 55 56 53 51 50 50 51 50 46 49 46 31 28 39 40 37 45 50 49 47 40 32 30 28 24 25 25 21 22 28 32 29 27 29 30 32 38 43 50 56 56 56 57 58 60 64 64 63 64 64 63 60
47 45 49 57 54 52 64 72 64 56 50 48 51 52 51 50 48 45 45 47 47 49 50 50 49 50 51 52 53 53 53 54 55 53 52 53 54 53 51 50 49 44 41 49 47 30 25 36 39 39 47 48 42 38 33 31 33 32 31 32 30 27 28 31 34 36 37 35 32 30 31 35 42 50 52 53 55 55 56 59 62 64 65 64 63 63
38 36 41 51 53 52 57 58 53 53 54 53 53 53 52 52 52 50 49 50 50 51 50 50 51 50 50 51 52 53 53 53 53 52 51 53 54 55 55 56 56 51 48 55 54 38 33 43 50 53 53 45 39 36 33 34 39 41 42 43 43 46 48 45 43 45 46 46 43 38 34 30 29 31 36 41 47 51 53 55 56 59 62 63 63 63
30 31 40 48 50 54 61 58 52 52 53 50 52 53 52 53 53 51 51 51 51 51 52 54 54 53 53 52 51 53 55 55 52 50 49 51 54 55 56 58 59 59 58 60 60 55 53 57 61 63 63 61 59 57 52 48 48 50 52 52 50 52 53 52 50 48 47 50 52 52 50 46 39 36 35 36 38 43 49 52 54 54 56 58 59 60
29 27 36 44 46 52 58 54 47 49 49 47 50 51 50 52 53 52 52 54 54 54 55 55 54 55 56 54 51 52 54 55 54 49 44 45 49 51 53 54 55 56 57 57 59 61 61 62 63 66 69 70 70 69 68 67 65 65 65 62 58 57 58 59 60 58 54 54 55 56 57 56 52 48 45 42 40 41 44 49 53 52 52 53 54 55
26 26 33 45 52 55 53 47 44 47 45 43 45 47 47 49 50 51 52 53 52 51 49 49 50 52 54 55 53 50 50 53 56 52 45 43 45 48 51 52 53 54 55 55 58 61 61 63 66 67 67 66 66 66 66 66 65 66 65 65 64 64 65 66 67 64 60 59 59 59 60 59 57 53 49 45 43 41 40 42 44 45 47 50 53 53
29 31 33 40 49 53 50 44 42 46 48 45 43 43 44 45 44 45 46 46 47 47 45 44 46 47 50 55 56 52 50 53 56 53 47 44 46 48 51 53 54 54 55 57 60 61 61 60 60 61 61 62 62 63 63 63 63 62 61 61 61 60 62 64 66 66 65 64 64 63 62 61 62 62 59 54 49 45 41 38 36 36 40 45 48 49
32 34 34 37 41 44 43 39 37 43 47 45 42 41 41 41 39 41 43 43 44 45 43 42 44 43 44 51 55 55 54 54 53 52 49 47 47 49 51 54 54 54 56 58 58 58 58 59 60 62 64 65 66 68 68 69 72 71 70 69 67 65 64 63 64 66 66 65 64 63 62 62 63 64 65 63 58 53 49 44 41 38 37 37 38 39
Wind_Speed
12 7 8 9 10 12 13 14 15 17 18 13 13 13 13 12 11 14 15 12 18 13 13 14 13 14 13 14 12 14 16 14 12 12 12 15 18 19 18 17 17 19 19 12 10 12 12 12 11 17 22 15 14 17 15 15 16 20 19 16 15 14 13 13 12 11 11 11 11 11 10 8 5 8 13 11 10 10 10 8 7 7 8 7 7 7
11 8 9 12 13 14 14 14 15 17 16 13 12 14 10 11 11 13 15 12 15 9 10 13 12 13 13 13 13 15 17 14 12 11 11 15 19 18 18 17 18 17 7 15 21 18 16 16 14 17 18 11 14 17 17 16 18 20 17 13 12 12 12 12 10 9 9 10 13 11 8 7 6 8 9 8 9 9 9 9 8 8 7 6 7 8
9 9 12 14 13 14 13 10 12 14 13 10 9 11 8 7 10 12 13 9 10 5 7 11 11 11 13 13 11 12 13 14 15 14 15 17 17 17 17 17 18 11 16 24 21 15 17 21 17 17 19 14 15 17 20 20 18 18 16 13 12 12 12 12 12 11 10 12 14 10 7 8 8 8 8 7 8 7 7 7 7 10 9 8 9 10
7 11 14 15 14 14 10 5 7 8 7 8 8 8 7 7 10 7 5 6 9 4 5 7 8 8 11 10 8 15 13 14 16 17 17 17 16 17 16 12 9 17 26 22 16 11 18 21 17 18 19 15 16 19 22 21 18 17 16 15 14 13 14 15 15 13 13 14 14 11 10 11 10 10 9 8 9 9 9 8 8 11 11 10 9 7
10 11 13 16 16 13 8 6 7 6 5 9 10 10 9 10 12 7 6 7 8 7 6 6 7 8 10 9 10 13 8 11 13 14 16 17 17 18 10 10 21 29 28 21 14 16 21 22 19 20 19 16 20 23 22 21 20 19 17 16 16 16 17 17 17 15 14 13 13 12 12 12 11 9 9 9 10 10 8 9 11 11 10 10 10 6
12 9 7 14 13 8 8 9 10 8 6 9 11 13 15 15 15 10 7 7 4 5 6 7 8 7 8 12 13 9 7 8 12 11 15 17 17 18 11 27 29 24 21 13 9 20 26 22 18 21 20 18 23 25 23 21 19 19 19 19 19 19 18 18 18 17 15 13 11 9 9 11 10 9 10 9 10 10 9 10 11 10 10 9 10 9
10 8 6 9 6 6 9 9 10 11 7 8 9 13 17 19 18 14 6 5 5 5 5 8 9 6 6 13 14 9 10 12 11 10 13 15 16 15 16 30 25 17 13 6 10 21 26 20 18 21 21 20 26 28 25 23 21 21 23 23 23 21 19 20 19 17 14 12 10 8 8 9 9 9 10 9 10 10 10 11 11 10 10 9 9 9
8 8 8 9 7 7 9 8 10 12 9 7 10 13 17 18 16 14 11 7 6 5 5 8 9 7 7 10 11 11 13 13 12 10 10 13 11 12 26 31 22 12 9 10 14 20 23 21 20 22 21 22 28 29 26 26 25 24 24 25 24 21 20 21 19 17 14 11 10 9 8 9 8 9 11 12 12 11 10 10 10 9 9 8 7 7
8 9 8 8 10 8 9 10 11 12 10 10 13 13 11 14 14 12 9 7 5 5 6 7 9 7 6 6 9 13 14 13 13 12 10 12 10 31 33 26 18 11 9 9 14 18 20 22 22 22 22 24 29 29 27 28 27 25 24 23 23 21 20 20 18 17 15 13 12 11 10 9 10 12 13 13 12 11 11 10 11 10 10 10 9 9
8 10 11 10 8 8 10 12 13 13 10 11 13 12 9 10 12 10 9 6 4 5 7 8 7 6 6 6 8 11 12 11 12 13 11 11 19 36 28 21 18 17 13 10 15 18 16 20 23 23 24 26 28 28 28 29 28 27 25 23 23 23 22 21 20 19 17 16 16 14 11 11 12 13 13 13 12 13 13 12 12 10 9 10 10 10
7 7 8 9 9 10 12 11 13 14 13 12 11 9 10 10 8 9 8 5 3 4 8 10 9 6 7 6 7 7 9 9 7 8 11 11 19 31 27 23 19 18 15 13 16 19 15 16 22 25 26 26 26 27 29 30 29 27 26 26 28 28 25 24 23 20 17 17 16 15 14 12 13 13 14 14 14 14 14 12 10 9 9 9 9 9
11 6 4 6 10 13 12 9 10 11 12 10 7 7 8 7 6 7 6 5 5 5 8 12 13 11 7 5 3 2 1 6 5 7 7 9 19 25 23 22 21 20 20 17 16 20 19 18 22 26 26 26 27 28 29 29 29 28 26 28 29 28 26 27 25 22 19 18 17 17 15 13 14 15 15 14 14 15 14 12 11 10 9 7 7 7
11 9 7 8 13 15 10 6 6 7 8 9 7 7 7 5 5 6 6 6 6 6 9 12 11 9 5 1 5 8 6 2 8 9 8 9 16 21 20 18 20 21 20 18 17 21 22 20 23 26 25 26 29 30 30 30 29 28 28 28 29 28 27 28 28 25 21 20 20 19 16 16 16 16 16 15 15 15 14 14 13 11 9 7 6 6
8 9 11 10 10 13 11 7 7 7 7 9 7 7 6 5 5 6 6 6 6 7 10 9 6 3 2 4 7 8 6 7 10 10 7 10 12 18 20 17 18 19 17 16 16 18 21 22 25 27 24 26 30 31 32 31 30 29 29 28 29 29 28 27 27 26 23 21 21 20 18 18 17 16 16 16 15 15 15 14 12 10 9 8 7 6
8 8 10 11 8 11 13 11 9 7 8 10 8 8 7 5 4 4 5 5 4 5 6 7 4 2 3 2 5 9 9 11 16 17 13 11 11 15 18 17 16 15 13 13 14 16 18 20 25 28 24 25 30 32 33 32 30 31 30 29 29 30 28 25 26 25 24 22 21 20 21 20 17 16 16 15 15 14 14 14 13 12 11 9 8 8
10 8 9 14 12 12 14 14 13 10 7 7 8 9 7 4 2 2 3 2 1 3 4 3 2 2 4 2 4 9 9 11 15 18 18 16 14 15 16 14 15 15 15 15 16 16 16 16 21 26 24 23 26 29 32 32 30 30 29 28 29 29 27 27 27 27 25 23 22 22 24 22 18 16 16 16 16 15 14 14 14 12 11 10 9 8
8 7 7 13 15 14 14 13 13 11 4 2 6 8 7 7 6 2 2 1 1 3 3 2 1 2 5 4 4 8 9 11 13 14 16 15 14 13 12 12 12 11 14 15 14 13 13 14 18 22 22 21 22 26 30 30 29 29 28 28 29 28 29 29 29 29 29 27 25 25 25 23 19 17 16 17 17 16 15 15 14 14 12 11 10 9
6 6 5 8 13 15 15 13 13 13 7 3 4 5 4 5 6 3 2 1 2 5 5 5 5 4 5 4 7 10 9 11 10 9 11 12 12 11 10 12 10 6 10 13 12 10 12 17 18 19 19 18 19 23 26 26 25 26 28 27 28 30 32 33 32 32 32 30 28 27 26 25 21 19 18 19 19 19 19 18 16 14 14 12 11 11
5 5 6 10 11 12 13 11 11 13 13 9 4 3 4 3 4 4 3 2 3 5 5 6 9 7 4 3 9 14 11 12 11 8 7 9 11 10 10 13 12 11 12 12 12 12 14 18 18 18 18 16 17 19 20 19 19 22 24 24 24 26 30 33 34 33 31 30 29 28 27 26 25 23 21 21 21 19 19 19 18 16 15 14 14 14
3 3 4 8 10 7 9 7 7 8 11 10 5 3 4 3 3 3 2 2 5 5 4 7 8 3 3 3 7 14 15 14 13 9 7 8 9 9 10 13 14 14 14 12 12 13 15 17 18 18 17 16 17 17 16 16 16 18 21 22 22 22 22 25 29 32 31 29 28 27 27 26 26 25 23 22 20 18 18 19 18 17 16 16 16 16
5 2 3 5 8 7 5 6 7 7 7 7 6 7 6 4 3 3 2 3 5 5 3 5 4 3 7 6 3 12 16 15 15 13 11 11 12 10 11 14 15 17 17 16 15 14 16 17 17 17 16 15 15 14 15 15 14 14 16 18 19 18 16 16 21 29 32 30 29 28 26 25 24 22 22 21 19 19 19 19 17 16 16 18 18 17
4 5 4 5 5 6 6 5 6 9 9 8 7 7 7 5 4 4 4 5 5 5 4 3 1 2 3 4 5 11 13 13 15 14 13 17 20 19 19 20 20 20 20 19 16 15 17 16 17 19 18 15 14 14 13 13 13 13 13 14 15 15 16 16 20 25 29 31 31 28 26 25 23 20 18 18 18 18 18 19 18 16 16 18 18 17
1 4 5 6 4 6 9 8 9 11 12 11 8 5 6 7 6 4 2 2 3 4 3 2 1 2 3 4 7 8 9 11 14 14 13 17 20 20 20 20 19 19 19 18 17 16 17 16 17 19 17 15 16 16 15 14 14 15 15 15 15 16 17 18 20 23 25 29 30 28 25 22 20 18 15 15 15 16 17 17 17 17 17 17 17 16
1 2 4 5 4 5 11 12 11 12 12 9 6 4 6 7 5 2 1 0 2 4 2 1 2 2 4 4 6 10 11 12 11 13 15 15 16 18 19 17 17 18 19 19 18 16 16 16 16 16 17 16 16 16 15 16 16 16 16 15 15 16 16 17 19 20 21 24 25 25 23 20 18 18 17 15 14 14 15 15 16 17 17 16 16 15
1 2 2 4 4 2 6 8 7 7 9 6 5 10 11 8 4 1 2 1 2 5 4 1 1 1 3 4 7 11 13 11 7 5 11 12 12 16 18 17 18 18 17 18 17 16 15 15 14 15 15 15 15 15 14 14 13 14 13 12 12 13 13 13 14 15 17 20 22 23 24 23 21 21 19 16 14 13 13 15 16 17 16 16 14 13
2 1 3 4 5 3 2 4 4 2 4 5 9 14 17 14 9 3 3 1 1 4 6 1 1 3 5 8 11 12 12 10 6 5 4 6 9 13 16 17 17 16 16 15 14 14 13 13 14 14 13 13 14 14 13 11 11 12 12 10 10 9 9 9 11 11 14 18 22 24 24 23 22 22 20 16 15 15 15 14 14 15 15 14 12 11
1 2 5 6 7 5 2 3 1 1 2 7 13 16 18 20 15 6 3 2 3 2 3 4 1 6 7 10 11 10 9 7 5 2 3 2 2 7 11 13 14 15 14 13 13 13 11 11 12 11 12 13 13 12 12 11 10 11 10 9 7 8 8 9 9 10 12 15 18 19 19 20 21 22 21 19 18 19 18 15 14 14 13 13 12 12
3 5 6 6 9 9 4 2 2 2 1 6 12 14 17 21 18 9 4 2 0 3 1 2 5 8 8 9 9 10 8 5 5 7 8 10 10 10 9 10 12 14 15 14 15 15 12 11 11 10 11 12 10 9 9 9 9 8 8 7 6 8 9 8 9 10 11 14 16 17 18 20 20 19 21 21 21 21 21 19 17 16 16 16 15 15
4 5 5 7 8 6 2 2 3 3 2 2 7 11 13 16 17 14 11 11 6 1 3 7 12 12 8 8 10 9 8 7 8 10 11 13 11 9 9 9 9 12 14 14 15 15 14 13 12 10 11 11 10 10 9 9 8 7 7 6 5 6 6 7 8 9 11 13 15 17 20 21 19 18 18 18 19 21 21 21 20 18 18 19 19 19
4 2 1 4 7 5 4 3 1 3 5 4 1 5 9 12 14 14 14 15 11 8 10 12 15 12 7 9 12 12 13 14 15 14 14 15 12 7 7 7 6 8 10 11 13 14 13 13 12 10 9 9 8 9 9 9 9 8 7 5 4 3 3 4 5 7 9 10 11 13 15 15 16 16 15 15 17 19 20 20 20 19 19 19 19 19
3 2 1 2 5 5 5 5 3 1 3 4 4 3 3 6 10 11 12 12 9 8 11 13 14 11 7 10 15 18 20 22 22 20 20 21 20 16 13 10 7 8 10 11 13 13 13 13 12 10 9 9 9 8 7 7 8 7 7 6 5 5 4 3 4 6 7 7 8 11 12 11 10 11 12 12 12 15 18 20 21 21 20 20 19 18
6 2 3 2 5 5 6 7 6 3 1 3 5 5 4 5 6 7 8 8 7 4 5 6 8 8 7 11 16 20 22 22 21 20 20 21 23 23 22 19 17 16 15 15 17 16 17 18 18 16 12 9 10 10 8 7 7 7 6 6 5 5 4 4 5 6 6 7 7 8 8 8 7 7 8 9 8 11 15 18 19 19 19 19 18 17
4 2 3 3 5 4 5 6 6 5 3 3 4 4 6 8 7 6 7 9 9 4 3 3 5 7 9 11 12 14 16 17 18 18 18 20 23 25 22 20 21 23 24 24 24 22 21 22 23 23 19 14 13 13 11 9 9 9 7 5 5 6 6 6 6 6 6 7 8 8 8 8 7 6 8 8 8 8 9 10 13 16 17 17 17 17
2 3 1 0 2 3 1 5 6 5 4 1 3 2 4 8 9 8 7 8 8 7 7 8 8 9 10 11 11 12 13 14 17 19 20 20 22 24 24 22 23 26 28 28 27 25 23 22 21 22 22 19 17 16 14 12 11 10 8 6 5 6 8 8 7 7 7 7 6 5 5 5 5 4 5 7 6 6 6 6 8 11 12 13 14 15
5 5 1 3 2 2 2 3 4 3 1 1 3 5 6 8 11 12 10 8 8 9 10 12 11 11 14 16 17 17 16 17 19 21 21 18 15 15 19 22 24 26 27 26 25 23 22 21 20 19 19 19 18 19 18 16 13 12 11 9 7 7 8 8 7 8 10 9 7 6 6 6 5 3 3 5 5 4 4 5 6 7 8 10 11 11
3 3 2 2 3 2 2 2 2 1 3 5 5 6 7 7 10 10 7 6 8 8 9 10 10 12 16 18 19 19 19 20 20 20 20 19 15 13 14 16 17 19 21 22 22 21 20 19 19 18 17 17 18 18 19 18 16 13 12 12 10 9 10 10 9 9 10 9 9 8 9 9 7 6 6 6 7 5 4 6 7 7 7 7 8 8
3 2 1 2 2 2 3 1 1 3 5 6 5 5 6 4 1 3 4 5 7 8 9 10 9 11 14 16 17 18 18 17 16 15 16 18 18 17 17 16 15 14 14 14 14 14 14 13 13 14 15 15 16 17 18 18 17 13 12 13 14 12 11 11 10 9 9 9 10 9 8 8 7 8 8 8 7 6 5 7 7 6 6 7 7 6
3 3 1 1 0 1 1 2 2 3 3 3 7 8 9 8 7 2 5 6 7 10 12 11 10 10 11 13 14 14 14 12 9 10 14 16 17 17 17 17 17 17 16 15 14 12 9 7 7 7 8 10 12 14 15 16 17 15 13 13 13 11 9 10 11 11 10 9 9 8 7 7 7 6 7 6 5 6 7 6 5 4 5 6 6 7
3 4 3 2 1 1 1 4 3 0 1 3 7 10 10 10 10 5 4 7 8 15 18 14 12 12 12 14 14 10 7 6 6 9 13 14 14 16 16 15 16 16 15 15 15 15 13 11 9 6 4 4 6 7 9 11 12 13 13 14 13 9 8 9 11 11 10 7 7 6 5 6 6 5 5 3 3 6 7 6 5 4 5 6 7 8
3 2 2 4 3 2 2 1 1 3 5 6 5 7 10 11 8 4 4 5 6 13 19 17 15 14 14 14 11 4 3 6 8 10 12 13 12 13 15 15 15 15 13 12 12 13 14 14 14 12 9 6 5 5 6 7 7 6 8 10 12 9 6 7 8 8 7 6 6 7 5 4 3 1 2 1 2 4 5 6 7 7 7 9 9 10
1 2 2 4 2 1 2 2 2 3 4 8 7 6 9 9 5 1 3 2 4 7 14 15 16 15 13 12 11 10 12 15 16 14 13 12 12 12 12 12 13 13 13 11 10 10 11 11 11 11 11 10 9 8 7 7 7 6 3 4 9 9 5 2 3 4 5 6 5 5 4 3 3 3 3 3 4 4 5 7 9 9 9 10 12 12
3 3 2 2 3 2 0 2 3 4 2 9 8 6 6 5 0 2 2 6 12 11 12 17 22 20 17 17 16 15 16 17 16 15 13 11 11 11 10 11 11 11 11 10 9 9 9 9 8 9 9 8 7 7 8 8 8 7 6 4 6 9 10 8 7 8 8 7 6 5 3 3 4 4 4 5 6 7 7 8 10 11 11 12 14 14
5 4 2 2 3 3 0 2 3 3 4 8 5 3 5 3 4 5 6 13 18 14 12 16 18 16 16 18 16 15 15 14 12 12 12 10 9 9 9 9 10 9 9 9 7 6 8 8 6 7 8 7 7 7 8 9 9 8 8 9 9 10 13 13 13 13 12 11 12 11 9 8 8 8 8 8 9 10 10 9 10 11 12 13 14 15
6 5 2 3 4 3 1 3 3 3 6 10 7 7 10 10 7 8 11 15 15 13 14 14 13 12 14 15 14 13 12 11 9 8 8 7 7 8 8 8 8 7 7 7 5 6 7 6 5 6 6 6 6 8 9 11 12 12 12 12 13 13 14 13 14 15 16 16 16 15 14 12 11 10 10 11 11 11 11 12 13 13 13 13 14 14
6 6 6 6 5 5 5 6 6 7 9 14 15 14 16 17 14 12 14 15 14 13 13 12 11 11 10 10 11 10 9 8 7 6 6 6 6 6 6 6 6 6 7 6 5 7 8 6 6 6 5 5 6 9 11 12 12 13 14 14 15 15 15 15 15 15 16 16 17 17 16 15 14 13 14 13 12 13 13 13 14 15 16 16 15 15
6 6 7 7 7 9 10 10 10 10 11 12 13 14 15 16 16 14 15 16 14 12 11 10 9 8 7 7 8 8 7 6 5 4 4 4 5 5 6 6 6 7 7 7 7 9 10 8 7 6 6 8 9 10 11 11 11 12 13 14 14 14 14 14 15 15 16 16 17 19 19 19 19 18 18 17 16 16 16 16 16 17 18 19 19 18
5 5 6 5 4 4 6 8 9 9 10 10 11 12 12 13 13 12 12 13 12 10 10 9 8 7 6 6 6 6 6 4 4 4 4 4 4 5 5 5 6 7 7 6 7 9 10 8 7 7 8 9 10 10 10 10 11 11 12 13 14 14 15 16 16 17 18 17 17 17 17 18 19 19 19 20 19 19 18 18 18 19 19 20 22 23
3 2 3 5 3 4 7 9 10 10 11 11 11 10 11 11 11 10 10 11 11 10 8 7 6 6 6 5 5 4 4 4 4 4 3 3 4 4 5 5 6 6 6 6 6 7 8 7 7 7 8 8 8 9 9 10 10 11 11 12 13 14 15 16 16 18 19 19 19 18 18 18 19 19 19 19 19 20 21 21 20 20 21 21 22 24
4 3 3 7 6 6 8 10 11 10 10 11 11 11 11 10 10 10 10 10 9 8 6 5 6 6 5 5 5 3 3 4 4 4 4 4 4 4 5 6 6 6 7 7 7 7 7 7 7 8 8 8 8 8 8 9 10 10 11 12 12 13 13 15 16 18 19 20 19 19 18 19 20 21 21 21 21 22 23 23 23 23 24 24 23 24
4 3 4 4 4 5 7 7 7 5 6 9 11 10 9 9 8 8 8 7 7 7 4 3 4 4 4 6 6 4 3 3 4 4 5 4 4 5 5 6 7 8 8 8 8 8 8 8 8 9 9 9 9 9 10 10 10 10 11 11 12 13 14 15 16 17 17 17 18 18 17 17 17 18 18 19 21 22 22 23 24 25 26 27 27 27
6 6 6 4 4 7 8 7 6 6 8 10 9 7 7 6 5 5 5 5 5 4 4 4 4 4 3 4 5 4 3 3 3 4 4 4 5 5 5 6 8 8 8 8 8 9 9 9 10 10 10 10 10 10 11 11 11 11 11 11 12 13 15 16 17 17 16 16 16 17 17 16 17 17 18 18 19 20 20 21 21 23 25 27 28 30
Wind_Direction
204 210 218 220 225 223 221 229 240 240 246 275 299 276 227 223 240 232 241 199 173 190 202 211 217 212 227 237 217 170 184 219 215 217 200 187 203 196 194 204 210 221 220 203 163 130 118 114 97 104 111 118 152 155 140 142 162 160 155 161 156 149 150 146 151 150 146 140 118 108 111 121 121 98 102 108 112 111 103 101 100 98 101 111 115 113
209 222 226 224 229 234 227 223 240 253 262 278 294 288 244 216 236 230 236 206 170 190 200 196 222 227 221 229 224 187 182 206 211 213 218 207 210 210 202 202 212 216 178 85 83 88 101 114 111 109 114 140 171 158 142 146 159 155 149 160 161 156 154 149 150 146 140 128 110 109 123 122 94 86 106 124 131 137 137 135 122 103 101 102 95 88
211 230 234 232 231 237 240 227 234 248 262 276 273 280 275 230 231 226 230 209 158 183 206 190 215 235 235 229 224 214 191 187 195 209 231 223 212 213 208 210 215 183 96 82 82 91 118 128 125 114 117 144 172 160 144 144 154 154 152 162 166 159 154 153 151 144 139 127 114 120 133 117 109 121 132 124 118 123 120 124 124 112 100 79 71 76
207 226 228 234 234 230 238 252 262 259 252 266 261 256 275 261 241 219 187 146 127 165 228 223 230 236 242 234 232 242 210 171 192 212 230 226 207 214 224 223 182 100 87 95 105 132 143 134 130 123 126 150 170 163 150 147 155 162 164 166 167 162 157 155 152 150 150 138 132 144 146 139 157 166 153 128 112 111 110 114 114 110 106 100 98 100
227 226 213 222 230 222 222 235 249 267 252 247 251 251 262 264 254 230 162 148 143 169 200 237 254 244 234 226 233 239 191 162 203 215 227 223 204 215 218 101 92 89 90 98 121 161 150 134 135 130 129 148 158 160 157 153 157 166 172 169 165 165 163 160 157 160 160 152 151 158 158 163 176 167 143 125 112 115 124 119 110 108 112 117 115 107
239 242 219 220 215 195 213 230 227 237 258 249 239 243 258 268 271 259 180 162 191 209 194 208 241 248 226 228 233 214 159 192 217 215 230 223 201 208 154 98 95 98 98 95 148 159 138 134 146 140 141 152 151 156 159 157 159 168 175 173 168 169 168 163 162 166 165 159 156 159 170 174 165 142 134 131 123 126 125 111 113 120 119 124 135 138
244 233 225 228 192 175 219 232 228 224 236 252 233 226 244 261 273 276 244 189 213 231 208 204 227 247 225 227 227 196 183 206 211 214 231 221 205 198 126 101 100 110 123 154 171 147 136 146 158 147 151 157 152 155 160 159 160 165 170 171 170 172 171 166 166 167 165 160 159 160 170 163 144 139 144 142 142 148 144 133 141 147 136 141 157 156
237 210 200 228 216 209 230 231 224 222 225 247 242 222 223 238 255 265 267 254 226 225 229 215 222 241 237 224 212 201 202 200 202 213 226 225 203 124 101 100 98 107 151 181 165 150 148 155 158 149 152 162 157 157 161 163 162 161 164 168 170 174 172 166 163 159 155 156 160 154 146 140 146 166 164 156 160 163 156 143 138 135 127 128 128 119
211 202 187 216 226 224 233 235 224 219 225 238 252 253 228 222 234 242 254 258 231 229 240 228 225 238 248 221 201 212 212 197 199 198 214 229 123 90 92 104 114 142 163 164 157 154 154 158 157 148 155 168 162 160 166 168 167 162 163 170 173 174 170 164 160 157 154 153 150 143 139 152 183 190 174 164 167 158 141 132 132 136 136 135 129 118
211 216 211 207 218 235 230 229 225 217 227 237 248 272 268 234 227 229 241 242 223 237 242 235 232 248 257 214 196 218 209 197 206 187 196 214 121 106 113 124 144 171 163 146 144 140 152 164 156 148 159 170 168 168 171 173 173 168 166 171 171 171 170 166 162 162 161 154 147 144 154 185 202 190 174 168 165 151 144 149 156 157 151 145 140 133
229 221 237 223 211 233 233 228 229 218 219 232 234 244 252 244 227 222 235 237 224 232 239 240 225 233 262 217 190 223 201 187 205 172 183 194 129 123 139 145 159 172 152 143 141 134 147 162 156 156 163 172 174 172 174 177 177 172 170 169 167 168 171 171 165 164 164 156 151 151 161 195 202 181 175 175 165 158 158 158 155 151 151 153 152 146
236 211 235 244 227 233 234 234 242 226 212 217 225 232 234 229 223 228 225 222 236 228 233 241 218 204 241 233 169 7 196 173 138 114 160 161 122 126 143 149 158 161 151 152 147 140 147 152 157 162 167 174 176 173 176 180 177 175 174 171 169 168 170 171 168 170 170 160 159 158 164 192 194 182 185 179 167 162 156 150 151 155 158 154 149 147
233 223 208 221 234 238 237 226 231 233 221 212 209 224 233 218 210 231 223 214 238 233 227 241 230 212 229 187 92 57 34 123 135 134 168 161 133 136 144 148 157 159 155 155 150 149 152 152 158 165 169 172 174 176 178 180 179 180 179 178 176 171 170 172 172 176 172 162 163 160 167 189 190 188 190 177 167 163 154 155 163 165 159 150 150 152
219 230 219 211 220 227 234 234 209 202 217 224 222 220 223 219 212 224 228 222 232 231 224 227 229 215 175 114 111 105 68 59 87 106 155 169 151 143 142 148 158 158 153 150 149 151 152 155 160 167 171 170 173 177 177 180 182 182 182 184 181 174 172 175 178 178 169 163 164 161 173 189 188 188 187 176 169 162 159 165 165 160 157 159 164 161
217 224 215 209 205 199 213 236 239 218 206 213 227 237 230 222 227 228 230 240 244 247 239 222 212 157 160 159 111 112 94 75 76 77 89 107 109 117 125 134 143 146 144 145 150 153 154 158 163 170 176 174 174 175 177 181 183 182 183 184 182 179 175 177 182 178 170 167 164 165 179 186 185 185 182 176 168 163 167 167 159 159 162 167 173 172
232 235 202 202 208 197 201 226 249 250 226 209 215 232 237 210 203 239 233 250 311 306 290 235 242 77 138 173 92 101 95 80 77 79 84 86 88 97 105 118 136 147 151 157 163 163 164 167 168 173 176 172 174 177 180 183 183 183 184 182 181 180 178 180 182 177 173 170 166 172 182 181 180 183 179 175 170 169 174 166 158 164 168 173 175 173
237 245 203 196 203 207 206 211 233 242 233 236 224 226 230 205 196 207 219 203 137 258 253 173 106 80 137 160 142 136 117 84 66 68 79 82 90 93 94 112 135 152 160 169 170 161 167 175 171 172 172 169 173 178 182 186 185 184 185 181 178 178 179 179 177 176 176 172 169 177 182 177 174 178 181 179 176 175 173 165 165 169 170 176 170 160
232 271 294 236 212 206 209 210 224 230 215 207 235 257 281 229 216 209 182 180 256 251 233 179 178 185 188 192 164 154 127 92 78 78 87 90 97 96 101 119 130 149 166 175 174 162 176 185 176 171 170 169 172 175 178 185 187 185 186 184 179 179 180 175 174 179 180 174 173 176 178 175 170 175 187 186 181 181 175 167 168 172 173 172 163 158
216 259 293 273 242 201 198 217 226 225 223 224 230 302 320 264 235 225 191 180 223 247 248 209 202 200 211 202 155 152 137 108 101 103 107 108 114 120 132 137 137 140 144 159 172 168 178 187 180 169 166 165 170 171 173 179 182 182 186 186 180 178 181 179 178 181 179 176 178 177 176 176 172 177 190 191 187 186 181 172 169 173 178 174 166 165
192 234 242 257 259 208 185 221 233 221 228 232 225 231 234 227 245 247 238 244 225 227 242 228 214 181 31 326 182 156 140 130 129 128 125 124 126 129 135 134 130 127 132 150 170 172 174 176 169 164 162 162 168 172 173 173 173 176 181 183 178 175 180 182 181 179 178 179 182 180 177 178 180 185 192 191 188 188 185 180 177 177 178 176 173 172
170 181 232 242 250 235 204 216 228 231 234 230 225 224 218 219 242 232 210 249 254 245 248 245 229 80 35 341 207 143 134 138 142 142 144 144 144 148 149 146 142 142 151 162 167 165 162 157 153 156 157 156 159 165 170 171 169 171 175 177 176 176 178 176 173 175 179 181 184 183 179 180 185 189 195 195 188 186 186 186 186 185 182 179 178 177
172 162 215 243 235 242 249 240 246 252 249 241 231 228 228 222 222 228 222 229 256 263 258 255 220 76 34 8 74 117 131 137 139 142 143 145 152 161 164 163 164 161 158 158 155 150 148 144 142 145 143 140 141 145 153 162 164 166 170 173 176 182 186 183 177 179 182 185 187 187 184 184 184 186 193 197 191 187 189 189 188 190 190 185 182 180
13 159 201 236 235 257 276 300 317 302 279 263 252 242 244 241 232 232 233 240 265 269 274 257 182 101 69 65 84 105 121 124 133 141 137 139 147 151 149 149 153 151 145 144 143 140 139 139 139 138 132 131 136 140 142 144 148 154 161 170 177 182 185 186 185 185 189 193 194 193 189 188 187 183 187 197 199 196 195 193 190 192 194 191 187 183
9 178 196 225 227 279 305 311 308 312 314 294 275 278 264 256 260 251 136 95 279 274 300 293 234 98 75 88 103 99 98 104 122 138 141 141 141 140 138 135 138 141 139 139 138 134 133 134 135 134 129 129 135 139 139 140 143 148 154 163 173 178 182 186 187 188 191 194 196 196 195 195 193 190 190 192 196 200 203 199 194 196 197 192 192 189
262 218 211 239 222 239 319 306 278 313 342 336 321 315 298 272 248 151 98 112 266 273 262 219 158 76 84 99 94 84 83 82 65 96 133 140 139 140 140 136 137 140 138 137 136 133 133 133 132 133 131 130 133 134 134 137 140 141 148 161 169 173 180 186 187 188 188 190 194 198 203 203 199 196 194 185 178 188 205 208 202 199 198 193 194 191
211 189 192 238 245 225 240 256 254 347 3 343 342 339 329 307 269 211 105 132 231 296 293 286 141 166 126 92 82 71 70 81 57 17 71 131 149 147 138 134 138 138 131 127 127 127 130 131 131 134 134 131 128 128 128 128 129 134 146 163 169 167 172 176 178 183 185 190 198 202 203 201 197 198 199 192 183 185 197 211 208 198 196 193 193 194
250 222 200 220 244 256 237 175 191 346 8 0 356 355 354 341 315 268 193 189 157 101 330 325 168 150 112 83 86 86 77 91 109 66 17 9 96 112 110 115 122 122 118 116 118 119 120 124 127 129 129 128 127 128 126 122 125 135 144 152 161 168 176 181 184 188 189 193 200 203 202 200 200 205 204 196 189 185 184 192 195 189 189 190 189 197
273 239 213 231 248 259 268 156 158 258 336 25 12 1 360 360 350 328 297 315 156 165 240 19 103 111 87 65 79 97 97 86 75 69 50 33 40 56 69 86 101 105 105 108 113 113 109 114 121 121 121 122 120 118 114 114 125 135 135 140 165 183 188 195 201 205 208 207 207 207 208 204 199 201 202 196 190 187 183 183 187 186 187 188 189 195
241 245 210 225 237 238 230 141 161 208 220 39 32 14 1 9 16 11 5 3 1 145 141 112 110 109 104 86 75 80 93 93 85 88 82 72 74 88 86 78 88 99 102 105 108 105 103 108 111 110 115 115 110 107 106 112 124 125 123 132 157 178 187 197 197 194 201 210 212 211 211 204 188 183 193 197 194 192 188 185 189 195 198 196 195 199
214 244 215 231 227 200 164 135 129 201 209 214 134 36 7 10 28 32 27 19 25 80 109 114 108 101 104 101 86 78 78 74 74 77 70 62 65 79 76 63 68 89 96 101 100 97 98 100 98 98 101 99 101 105 102 104 109 106 104 109 115 125 145 177 183 173 178 191 198 199 198 190 174 170 181 193 195 198 200 198 197 202 207 206 206 210
290 242 55 280 234 198 181 164 135 163 206 207 183 138 55 28 32 35 38 30 26 69 97 108 108 104 108 95 78 69 64 59 57 55 50 51 57 64 64 54 58 84 96 98 96 94 91 86 85 89 89 88 94 98 95 97 100 100 102 104 105 109 115 131 143 148 156 161 169 181 179 165 159 166 177 188 191 194 202 207 207 208 210 211 214 218
316 237 153 242 246 210 203 199 174 148 191 238 207 176 145 98 64 50 53 41 20 46 93 100 101 106 109 89 70 60 58 57 55 52 48 50 55 59 58 54 57 69 78 81 81 79 75 71 71 76 79 81 86 86 89 95 86 81 86 89 88 94 116 137 134 128 125 120 128 146 147 137 137 148 165 184 192 191 196 203 207 209 210 214 218 222
316 271 174 217 248 223 202 194 176 167 199 248 248 199 154 132 116 94 67 41 24 37 101 90 93 108 107 92 77 69 67 64 60 57 53 52 54 57 56 51 54 59 62 65 67 65 64 66 71 72 69 68 72 71 71 74 71 66 68 76 70 60 64 82 95 102 105 105 108 114 116 122 126 129 146 162 171 186 199 205 206 210 215 218 223 227
256 275 283 61 285 273 180 143 161 198 214 236 347 13 126 137 127 104 85 61 44 50 65 67 81 98 92 84 83 81 79 78 75 69 62 56 56 58 56 53 58 63 62 62 63 63 64 68 74 74 67 66 74 76 72 70 67 62 62 76 80 60 56 61 59 60 67 72 87 105 111 117 124 129 148 157 160 180 200 202 203 209 214 218 224 229
205 223 220 82 63 336 9 133 166 225 232 89 30 42 78 107 108 99 92 86 78 74 73 73 78 83 83 85 89 91 93 94 87 76 67 60 56 57 55 52 58 66 67 65 64 65 64 65 71 74 67 64 71 78 77 72 65 62 62 64 65 66 70 76 73 69 67 64 71 84 89 93 96 97 129 145 150 174 194 195 201 204 202 209 218 223
186 197 191 133 118 132 214 210 190 156 112 91 67 71 85 102 111 102 86 87 98 98 90 85 85 86 89 92 94 97 102 100 92 83 75 68 64 65 60 50 49 59 65 65 65 66 65 61 59 60 58 60 65 70 69 61 49 49 62 65 66 74 79 81 81 79 75 73 80 89 94 99 105 109 112 113 112 123 155 168 180 193 192 192 201 204
153 137 195 189 155 186 218 217 137 152 132 96 68 63 62 54 92 121 111 110 111 109 109 110 106 99 100 103 104 107 107 101 95 91 84 76 71 69 66 57 50 51 57 59 58 62 67 68 63 58 58 65 71 71 70 62 48 41 51 58 60 67 76 80 78 71 70 76 78 81 92 99 106 117 121 117 117 120 123 135 152 169 175 177 183 182
154 124 138 196 179 349 263 243 218 187 164 57 26 15 15 10 356 24 119 126 127 129 129 123 116 113 115 116 120 121 111 96 93 97 95 92 88 84 79 70 61 58 58 56 50 46 50 61 70 71 71 74 74 71 71 72 67 59 51 43 44 55 69 71 64 57 59 67 63 63 86 96 94 112 121 118 134 141 123 121 141 144 147 165 171 166
194 134 138 192 218 83 231 263 275 132 71 24 13 352 351 1 349 339 114 121 134 140 139 138 138 141 143 142 148 151 127 100 104 104 99 95 92 91 90 86 79 73 67 60 52 45 46 52 54 55 72 94 87 71 68 74 77 77 67 45 34 50 83 75 57 48 46 44 43 50 75 90 90 111 127 104 124 146 138 146 167 158 156 173 177 175
225 156 178 223 224 150 153 262 0 70 46 24 11 341 345 353 334 294 145 122 135 142 143 144 144 144 150 152 151 144 95 103 111 107 100 95 90 86 84 85 85 83 78 73 62 49 47 52 52 46 41 42 39 31 40 52 62 81 82 49 24 24 70 72 46 37 38 31 28 30 22 15 26 9 224 206 187 177 171 182 188 185 193 198 197 199
339 349 280 252 244 131 114 100 99 103 27 345 339 343 340 333 322 231 151 102 63 119 132 119 98 92 99 107 94 76 87 104 109 108 106 101 93 86 82 82 81 80 78 77 73 65 57 53 52 48 40 31 23 14 7 10 14 13 25 28 7 354 351 13 4 4 20 17 5 2 353 329 309 287 252 239 243 231 220 222 221 219 217 208 205 211
355 341 306 289 304 312 149 126 113 105 7 321 325 357 348 323 352 138 150 79 66 80 108 96 82 79 81 83 84 88 98 106 108 104 99 95 90 83 79 77 75 73 71 65 60 62 62 52 40 41 40 28 19 13 355 344 351 354 337 323 336 328 310 299 300 310 326 329 304 280 274 272 271 266 250 244 246 239 236 245 244 236 229 221 216 217
13 337 339 35 356 321 338 103 104 88 13 341 337 20 18 23 133 140 101 80 75 77 87 84 81 87 90 86 86 90 95 97 98 93 87 85 82 77 73 72 70 66 63 58 41 27 44 46 24 19 26 14 359 352 342 336 336 332 321 312 309 308 306 305 305 303 302 297 288 282 276 274 278 280 278 276 269 258 250 251 249 241 238 235 228 223
14 342 11 49 2 327 23 67 79 80 42 31 43 62 47 47 89 118 98 86 83 84 82 77 76 84 92 91 90 91 94 95 95 91 87 83 78 71 69 70 66 58 55 53 19 356 19 30 3 359 11 5 346 332 323 324 321 316 316 315 310 307 307 306 303 299 296 294 293 292 288 285 283 279 273 273 276 274 267 259 253 246 240 238 234 229
38 42 66 64 44 49 79 98 98 88 67 54 55 62 59 55 66 91 96 90 90 91 88 84 84 87 93 98 98 96 96 96 94 90 85 80 72 66 63 57 42 30 34 36 3 347 1 9 358 356 352 330 319 313 312 316 316 313 313 311 308 307 305 303 301 299 298 296 292 289 286 282 278 274 271 269 270 271 270 264 259 251 243 240 239 235
64 72 78 87 90 82 86 102 103 90 81 70 62 64 68 65 66 79 88 86 87 95 95 92 94 94 94 104 108 102 95 94 92 83 79 78 67 60 61 54 33 19 22 21 356 347 356 4 4 357 338 325 321 316 312 308 303 303 304 302 303 305 301 297 294 291 290 291 290 289 286 283 279 277 274 270 266 266 267 263 260 256 252 248 244 241
64 69 82 107 133 109 94 107 111 104 101 96 83 75 73 71 70 78 87 86 87 94 94 94 101 98 86 90 102 103 101 98 88 77 75 75 66 64 64 51 34 21 17 14 1 354 358 1 357 349 338 334 332 328 323 317 309 305 299 293 291 289 287 287 286 283 283 286 287 287 286 283 280 276 272 269 265 263 263 261 259 257 255 252 248 245
14 350 73 95 98 97 110 116 118 117 114 109 104 98 91 87 83 83 90 95 97 99 99 99 103 100 88 79 81 93 108 104 83 63 51 53 66 71 58 36 23 17 13 7 359 354 351 345 340 339 336 335 334 331 329 327 322 318 312 308 305 299 295 295 292 287 283 281 280 281 282 281 278 271 267 266 264 261 259 257 256 256 256 254 253 251
300 308 72 95 94 101 119 126 126 125 118 108 104 103 102 106 107 108 114 116 109 105 113 122 116 116 120 107 84 71 83 90 72 41 30 39 50 42 28 17 11 7 1 353 343 341 341 338 336 335 332 330 327 325 325 324 322 320 319 318 318 314 308 306 304 300 298 293 289 287 287 287 286 282 278 274 271 266 262 258 257 260 259 255 254 257
348 10 66 108 125 117 120 128 128 124 117 110 106 103 103 107 109 111 115 110 93 83 90 107 104 106 115 105 82 52 42 64 55 33 26 28 28 21 14 9 1 351 344 343 342 341 338 335 333 331 330 329 327 324 322 318 314 311 308 308 309 307 305 304 303 303 304 302 299 298 296 290 287 287 285 282 278 274 270 265 262 261 261 258 256 259
30 38 51 65 90 104 113 114 100 97 110 113 110 107 109 106 100 103 108 101 85 74 61 43 32 21 28 55 58 45 38 47 43 32 23 18 17 13 3 356 346 338 338 342 341 338 334 332 333 333 331 329 328 324 320 316 311 305 300 299 300 299 298 299 298 296 296 295 296 300 300 293 286 283 282 280 279 278 276 274 269 266 263 260 258 259